Location: Gorze? G�rny
(49.8500°N, 19.5000°E)
Time: 13:01:22
(UTC+00:00)

Cosmos 494 Rocket - Pass Details

Date: 13 May 2021
Orbit: 743 x 770 km, 74.1° (Epoch: 22 June)

Event Time Altitude Azimuth Distance (km) Brightness Sun altitude
Rises 21:50:50 0° 337° (NNW) 3,230 8.7 -20.7°
Reaches altitude 10° 21:53:14 10° 340° (NNW) 2,296 7.6 -20.8°
Maximum altitude 21:58:26 68° 64° (ENE) 811 4.1 -21.0°
Enters shadow 22:00:12 41° 133° (SE) 1,091 4.4 -21.0°
